CW3699 Weather Reports


Display with metric or nautical units.
time (UTC)temp
F
wind
direction
speed
MPH
gust
MPH
rain 1hr
in
rain 24hr
in
rain mn
in
humidity
%
barometer
mb
20260901152407 67 40 1.0 2.0 0.00 0.00 0.00 97 1014.5
20260901151907 67 49 0.0 2.0 0.00 0.00 0.00 97 1014.6
20260901151407 66 105 0.0 1.0 0.00 0.00 0.00 97 1014.8
20260901150907 66 97 0.0 2.0 0.00 0.00 0.00 97 1014.9
20260901150407 66 38 0.0 2.0 0.00 0.00 0.00 97 1014.9
20260901145908 66 57 0.0 1.0 0.00 0.00 0.00 97 1014.9
20260901145407 66 64 0.0 2.0 0.00 0.00 0.00 97 1014.8
20260901144908 66 55 0.0 2.0 0.00 0.00 0.00 98 1014.8
20260901144407 66 62 1.0 2.0 0.00 0.00 0.00 97 1014.8
20260901143907 66 50 1.0 2.0 0.00 0.00 0.00 97 1014.8
20260901143407 66 58 1.0 2.0 0.00 0.00 0.00 97 1014.7
20260901142407 66 135 1.0 2.0 0.00 0.00 0.00 97 1014.7
20260901141907 66 77 1.0 2.0 0.00 0.00 0.00 97 1014.8
20260901140407 66 28 1.0 2.0 0.00 0.01 0.00 98 1014.5
20260901135907 67 58 1.0 2.0 0.00 0.01 0.00 98 1014.6
20260901135407 67 35 1.0 2.0 0.00 0.02 0.00 98 1014.6
20260901134907 67 73 1.0 2.0 0.00 0.02 0.00 98 1014.6
20260901134407 67 171 1.0 2.0 0.00 0.03 0.00 98 1014.6
20260901133907 66 52 1.0 2.0 0.00 0.03 0.00 98 1014.5
20260901133407 66 82 1.0 2.0 0.00 0.03 0.00 98 1014.5
20260901132407 66 133 0.0 2.0 0.00 0.04 0.00 98 1014.5
20260901131907 66 146 1.0 2.0 0.00 0.04 0.00 98 1014.5
20260901131409 66 147 0.0 2.0 0.00 0.04 0.00 98 1014.6
20260901130908 66 120 1.0 2.0 0.00 0.04 0.00 98 1014.4
20260901130407 66 116 0.0 2.0 0.00 0.04 0.00 98 1014.4
20260901125407 66 93 0.0 2.0 0.00 0.04 0.00 98 1014.4
20260901124414 66 119 0.0 2.0 0.00 0.04 0.00 98 1014.3
20260901123907 66 104 1.0 2.0 0.00 0.04 0.00 98 1014.3
20260901123407 65 88 1.0 2.0 0.00 0.04 0.00 98 1014.3
20260901122407 65 157 1.0 2.0 0.00 0.04 0.00 98 1014.2
20260901121908 65 87 0.0 2.0 0.00 0.04 0.00 98 1014.1
20260901121414 65 151 0.0 2.0 0.00 0.04 0.00 98 1014.1
20260901120907 65 106 0.0 1.0 0.00 0.04 0.00 98 1014.1
20260901120407 65 85 0.0 1.0 0.00 0.04 0.00 98 1014.1
20260901115914 65 117 0.0 2.0 0.00 0.04 0.00 98 1014.1
20260901115407 65 122 0.0 1.0 0.00 0.04 0.00 98 1014.1
20260901114907 65 103 0.0 2.0 0.00 0.04 0.00 98 1014.1
20260901113907 65 105 0.0 2.0 0.00 0.04 0.00 98 1014.1
20260901113407 65 93 0.0 1.0 0.00 0.04 0.00 97 1014.0
20260901112913 65 140 0.0 1.0 0.00 0.04 0.00 97 1014.1
20260901111908 65 112 0.0 1.0 0.00 0.04 0.00 97 1014.1
20260901111407 65 70 0.0 1.0 0.00 0.04 0.00 97 1014.0
20260901110907 65 131 0.0 1.0 0.00 0.04 0.00 97 1013.9
20260901110407 65 84 0.0 1.0 0.00 0.04 0.00 97 1013.8
20260901105914 65 97 0.0 0.0 0.00 0.04 0.00 97 1013.8
20260901105407 65 134 0.0 1.0 0.00 0.04 0.00 97 1013.8
20260901104907 65 86 0.0 1.0 0.00 0.04 0.00 97 1013.8
20260901103907 65 89 0.0 0.0 0.00 0.04 0.00 97 1013.8
20260901102913 65 66 0.0 1.0 0.00 0.04 0.00 97 1013.7
20260901101907 65 93 0.0 0.0 0.00 0.04 0.00 97 1013.7
20260901101407 65 147 0.0 1.0 0.00 0.04 0.00 97 1013.7
20260901100907 65 126 0.0 1.0 0.00 0.04 0.00 97 1013.7
20260901100407 65 94 0.0 0.0 0.00 0.04 0.00 97 1013.6
20260901094907 65 114 0.0 0.0 0.00 0.04 0.00 97 1013.5
20260901094407 65 97 0.0 1.0 0.00 0.04 0.00 97 1013.5
20260901093907 65 123 0.0 0.0 0.00 0.04 0.00 97 1013.5
20260901093407 65 82 0.0 0.0 0.00 0.04 0.00 97 1013.5
20260901092407 65 115 0.0 1.0 0.00 0.04 0.00 97 1013.4
20260901091407 65 175 0.0 1.0 0.00 0.04 0.00 97 1013.4
20260901090407 65 132 0.0 1.0 0.00 0.04 0.00 97 1013.3
20260901085907 65 92 0.0 1.0 0.00 0.04 0.00 97 1013.3
20260901085407 65 103 0.0 1.0 0.00 0.04 0.00 97 1013.3
20260901084907 65 82 0.0 1.0 0.00 0.04 0.00 97 1013.3
20260901084407 65 100 0.0 1.0 0.00 0.04 0.00 97 1013.4
20260901083907 65 141 0.0 1.0 0.00 0.04 0.00 97 1013.4
20260901083407 65 86 0.0 1.0 0.00 0.04 0.00 97 1013.4
20260901082907 65 102 0.0 1.0 0.00 0.04 0.00 97 1013.3
20260901082407 65 107 0.0 1.0 0.00 0.04 0.00 97 1013.3
20260901080907 65 99 0.0 1.0 0.00 0.04 0.00 98 1013.2
20260901080407 65 109 0.0 1.0 0.00 0.04 0.00 98 1013.1
20260901075907 65 125 0.0 1.0 0.00 0.04 0.00 97 1013.1
20260901075406 65 92 0.0 1.0 0.00 0.04 0.00 97 1013.0
20260901074907 65 107 0.0 1.0 0.00 0.04 0.00 97 1013.0
20260901074407 65 98 0.0 0.0 0.00 0.04 0.00 97 1012.9
20260901073913 65 105 0.0 0.0 0.00 0.04 0.00 97 1012.8
20260901073407 65 98 0.0 0.0 0.00 0.04 0.00 97 1012.8
20260901072907 65 190 0.0 2.0 0.00 0.04 0.00 97 1012.8
20260901072409 65 109 0.0 0.0 0.00 0.04 0.00 97 1012.8
20260901071907 65 185 0.0 1.0 0.00 0.04 0.00 97 1012.8
20260901071407 65 112 0.0 1.0 0.00 0.04 0.00 98 1012.8
20260901070914 65 146 0.0 1.0 0.00 0.04 0.00 97 1012.8
20260901070407 65 119 0.0 1.0 0.00 0.04 0.00 97 1012.7
20260901065906 64 125 0.0 1.0 0.00 0.04 0.00 97 1012.6
20260901065413 64 130 0.0 1.0 0.00 0.04 0.00 97 1012.7
20260901064908 64 146 0.0 2.0 0.00 0.04 0.00 97 1012.6
20260901064406 64 94 0.0 1.0 0.00 0.04 0.00 97 1012.5
20260901062407 64 84 0.0 1.0 0.00 0.04 0.00 97 1012.5
20260901061906 64 86 0.0 1.0 0.00 0.04 0.00 97 1012.5
20260901061407 64 111 0.0 1.0 0.00 0.04 0.00 97 1012.5
20260901060913 64 120 0.0 1.0 0.00 0.04 0.00 97 1012.5
20260901060407 64 119 0.0 1.0 0.00 0.04 0.00 97 1012.5
20260901055407 64 99 0.0 1.0 0.00 0.04 0.00 97 1012.4
20260901054907 64 108 0.0 1.0 0.00 0.04 0.00 97 1012.5
20260901054406 64 58 0.0 1.0 0.00 0.04 0.00 97 1012.5
20260901053913 64 106 0.0 1.0 0.00 0.04 0.00 97 1012.5
20260901053406 64 92 0.0 1.0 0.00 0.04 0.00 97 1012.6
20260901052413 64 126 0.0 1.0 0.00 0.04 0.00 97 1012.5
20260901051907 64 124 0.0 0.0 0.00 0.04 0.00 97 1012.6
20260901051407 64 91 0.0 1.0 0.00 0.04 0.00 97 1012.6
20260901050913 63 131 0.0 1.0 0.00 0.04 0.00 97 1012.5
20260901050406 63 106 0.0 1.0 0.00 0.04 0.00 97 1012.5
20260901045907 63 119 0.0 1.0 0.00 0.04 0.00 97 1012.4
20260901045413 63 127 0.0 1.0 0.00 0.04 0.00 97 1012.5
20260901044906 64 91 0.0 1.0 0.00 0.04 0.00 97 1012.7
20260901044407 64 124 0.0 0.0 0.00 0.04 0.00 97 1012.7
20260901043913 64 113 0.0 0.0 0.00 0.04 0.00 97 1012.7
20260901043406 64 192 0.0 1.0 0.00 0.04 0.00 97 1012.7
20260901042907 64 69 0.0 1.0 0.00 0.04 0.00 97 1012.7
20260901042406 64 65 0.0 1.0 0.00 0.04 0.00 97 1012.8
20260901041406 64 138 0.0 1.0 0.00 0.04 0.00 97 1012.8
20260901040906 64 138 0.0 1.0 0.00 0.04 0.00 97 1012.9
20260901040406 64 90 0.0 1.0 0.00 0.04 0.00 97 1012.9
20260901035906 64 133 0.0 1.0 0.00 0.04 0.04 97 1012.8
20260901035407 64 68 0.0 1.0 0.00 0.04 0.04 97 1012.8
20260901034907 64 105 0.0 1.0 0.00 0.04 0.04 97 1012.8
20260901034407 64 118 0.0 1.0 0.00 0.04 0.04 97 1012.7
20260901033906 64 106 0.0 1.0 0.00 0.04 0.04 97 1012.6
20260901033407 64 107 0.0 1.0 0.00 0.04 0.04 97 1012.6
20260901032408 64 100 0.0 1.0 0.00 0.04 0.04 97 1012.4
20260901031907 64 120 0.0 1.0 0.00 0.04 0.04 97 1012.5
20260901030906 64 115 0.0 1.0 0.00 0.04 0.04 97 1012.4
20260901030406 64 96 0.0 1.0 0.00 0.04 0.04 97 1012.4
20260901025907 64 54 0.0 2.0 0.00 0.04 0.04 97 1012.3
20260901025406 64 106 0.0 1.0 0.00 0.04 0.04 97 1012.4
20260901024908 64 78 0.0 1.0 0.00 0.04 0.04 97 1012.5
20260901023907 64 99 0.0 1.0 0.00 0.04 0.04 97 1012.6
20260901023406 64 99 0.0 1.0 0.00 0.04 0.04 97 1012.6
20260901022906 64 104 0.0 1.0 0.00 0.04 0.04 97 1012.7
20260901022407 64 87 0.0 1.0 0.00 0.04 0.04 97 1012.5
20260901021907 64 75 0.0 1.0 0.00 0.04 0.04 97 1012.6
20260901021406 64 110 0.0 1.0 0.00 0.04 0.04 97 1012.6
20260901020907 64 108 0.0 0.0 0.00 0.04 0.04 97 1012.5
20260901020406 64 102 0.0 1.0 0.00 0.04 0.04 97 1012.6
20260901015907 64 133 0.0 1.0 0.00 0.04 0.04 96 1012.5
20260901014907 64 96 0.0 1.0 0.00 0.04 0.04 96 1012.5
20260901014407 64 77 0.0 1.0 0.00 0.04 0.04 97 1012.7
20260901013906 64 106 0.0 1.0 0.00 0.04 0.04 97 1012.7
20260901013407 64 179 0.0 2.0 0.00 0.04 0.04 96 1012.7
20260901012907 64 87 0.0 1.0 0.00 0.04 0.04 96 1012.6
20260901011907 64 150 0.0 1.0 0.00 0.04 0.04 96 1012.5
20260901010907 64 82 0.0 1.0 0.00 0.04 0.04 96 1012.4
20260901010406 64 82 0.0 0.0 0.00 0.04 0.04 96 1012.3
20260901005907 64 94 0.0 0.0 0.00 0.04 0.04 96 1012.3
20260901005406 64 87 0.0 1.0 0.00 0.04 0.04 96 1012.2
20260901004407 64 63 0.0 1.0 0.00 0.04 0.04 96 1012.2
20260901003906 65 58 0.0 1.0 0.00 0.04 0.04 97 1012.1
20260901002906 65 116 1.0 2.0 0.00 0.04 0.04 97 1012.0
20260901002407 64 80 0.0 2.0 0.00 0.04 0.04 97 1011.9
20260901001907 64 92 0.0 2.0 0.00 0.04 0.04 96 1012.0
20260901000407 65 110 1.0 2.0 0.00 0.04 0.04 96 1012.0
20260831235906 65 111 1.0 2.0 0.00 0.04 0.04 96 1012.0
20260831235407 65 111 1.0 2.0 0.00 0.04 0.04 96 1011.9
20260831234907 65 112 1.0 2.0 0.00 0.04 0.04 96 1011.9
20260831234406 65 120 1.0 3.0 0.00 0.04 0.04 96 1011.9
20260831233906 65 110 1.0 3.0 0.00 0.04 0.04 96 1011.9
20260831233407 64 115 1.0 2.0 0.00 0.04 0.04 96 1011.9
20260831232906 64 97 1.0 2.0 0.00 0.04 0.04 96 1011.9
20260831232407 64 101 1.0 3.0 0.00 0.04 0.04 95 1011.9
20260831231907 64 68 1.0 2.0 0.00 0.04 0.04 96 1011.9
20260831231407 64 115 1.0 2.0 0.00 0.04 0.04 95 1012.0
20260831230907 64 91 0.0 2.0 0.00 0.04 0.04 95 1011.9
20260831230406 64 97 1.0 2.0 0.00 0.04 0.04 95 1011.9
20260831225907 65 83 1.0 2.0 0.00 0.04 0.04 95 1012.0
20260831225422 65 82 1.0 2.0 0.00 0.04 0.04 95 1011.9
20260831224906 65 109 1.0 2.0 0.00 0.04 0.04 95 1012.0
20260831224407 65 111 0.0 2.0 0.00 0.04 0.04 94 1012.2
20260831223406 66 38 1.0 3.0 0.00 0.04 0.04 94 1012.0
20260831222907 66 69 1.0 2.0 0.00 0.04 0.04 95 1012.0
20260831222407 66 66 1.0 3.0 0.00 0.04 0.04 94 1012.1
20260831221907 67 41 1.0 2.0 0.00 0.04 0.04 94 1012.1
20260831220906 67 73 1.0 2.0 0.00 0.04 0.04 94 1012.1
20260831220406 67 88 1.0 3.0 0.00 0.04 0.04 94 1012.1
20260831215907 68 86 1.0 3.0 0.00 0.04 0.04 94 1012.0
20260831215406 68 74 1.0 3.0 0.00 0.04 0.04 94 1012.0
20260831214906 68 59 1.0 3.0 0.00 0.04 0.04 94 1012.1
20260831214407 68 145 1.0 3.0 0.00 0.04 0.04 94 1012.0
20260831213407 68 78 1.0 2.0 0.00 0.04 0.04 95 1012.1
20260831212907 68 91 1.0 2.0 0.00 0.04 0.04 95 1012.1
20260831212407 67 111 1.0 3.0 0.00 0.04 0.04 95 1012.3
20260831211906 67 115 1.0 3.0 0.00 0.04 0.04 94 1012.2
20260831211407 67 114 1.0 2.0 0.00 0.04 0.04 94 1012.0
20260831210906 67 70 1.0 2.0 0.00 0.04 0.04 94 1012.2
20260831210406 68 74 1.0 2.0 0.00 0.04 0.04 93 1012.1
20260831205907 68 94 1.0 3.0 0.00 0.04 0.04 93 1012.1
20260831205406 68 129 1.0 3.0 0.00 0.04 0.04 94 1012.3
20260831204907 68 60 1.0 3.0 0.00 0.04 0.04 93 1012.3
20260831204407 68 64 1.0 3.0 0.00 0.04 0.04 93 1012.3
20260831203907 68 115 1.0 3.0 0.00 0.04 0.04 94 1012.3
20260831203406 68 87 1.0 3.0 0.00 0.04 0.04 93 1012.5
20260831202907 68 141 1.0 2.0 0.00 0.04 0.04 93 1012.5
20260831202406 68 109 1.0 3.0 0.00 0.04 0.04 93 1012.5
20260831201907 69 84 1.0 3.0 0.00 0.04 0.04 92 1012.6
20260831201406 69 143 1.0 5.0 0.00 0.04 0.04 90 1012.7
20260831200906 69 39 1.0 3.0 0.00 0.04 0.04 92 1012.6
20260831195906 69 52 1.0 3.0 0.00 0.04 0.04 93 1012.7
20260831195406 69 55 1.0 3.0 0.00 0.05 0.04 93 1012.8
20260831194906 69 62 1.0 3.0 0.00 0.05 0.04 92 1012.8
20260831194407 69 88 1.0 2.0 0.00 0.05 0.04 91 1012.9
20260831193907 70 79 1.0 3.0 0.00 0.05 0.04 90 1012.9
20260831193407 70 67 1.0 3.0 0.00 0.05 0.04 90 1013.0
20260831192906 71 37 2.0 3.0 0.00 0.05 0.04 90 1013.0
20260831191907 70 64 1.0 5.0 0.00 0.05 0.04 92 1013.1
20260831191407 70 129 1.0 5.0 0.00 0.05 0.04 90 1013.1
20260831190906 71 82 1.0 3.0 0.00 0.05 0.04 90 1013.2
20260831190406 71 58 2.0 3.0 0.00 0.05 0.04 89 1013.1
20260831185406 73 51 2.0 7.0 0.00 0.05 0.04 89 1013.0
20260831184407 72 87 2.0 5.0 0.00 0.05 0.04 90 1013.2
20260831183906 72 148 2.0 3.0 0.00 0.05 0.04 91 1013.1
20260831183407 72 63 2.0 5.0 0.00 0.05 0.04 92 1013.1
20260831182907 71 109 1.0 3.0 0.00 0.05 0.04 93 1013.2
20260831182406 71 112 1.0 7.0 0.00 0.05 0.04 92 1013.2
20260831181907 70 81 1.0 3.0 0.00 0.05 0.04 92 1013.2
20260831181406 70 105 1.0 3.0 0.00 0.05 0.04 93 1013.4
20260831180406 70 53 2.0 3.0 0.00 0.05 0.04 95 1013.4
20260831175906 69 38 2.0 5.0 0.00 0.05 0.04 94 1013.4
20260831175406 69 59 1.0 3.0 0.00 0.05 0.04 94 1013.4
20260831174906 69 60 1.0 3.0 0.00 0.05 0.04 94 1013.4
20260831174406 69 62 1.0 3.0 0.00 0.05 0.04 95 1013.6
20260831173912 69 72 2.0 3.0 0.00 0.05 0.04 95 1013.6
20260831173406 69 48 1.0 3.0 0.00 0.05 0.04 97 1013.8
20260831172907 69 98 2.0 5.0 0.00 0.05 0.04 97 1013.8
20260831172412 68 83 1.0 3.0 0.00 0.05 0.04 97 1013.8
20260831171906 68 58 1.0 3.0 0.00 0.05 0.04 97 1013.8
20260831171406 68 96 1.0 3.0 0.00 0.05 0.04 98 1013.9
20260831170912 68 67 1.0 5.0 0.00 0.05 0.04 97 1013.9
20260831170406 68 58 1.0 3.0 0.00 0.05 0.04 98 1014.0
20260831165906 68 41 1.0 3.0 0.00 0.05 0.04 98 1014.1
20260831165412 68 65 1.0 3.0 0.00 0.05 0.04 98 1014.2
20260831164906 67 67 1.0 3.0 0.00 0.05 0.04 98 1014.3
20260831164406 67 44 1.0 3.0 0.00 0.05 0.04 98 1014.1
20260831163406 68 50 1.0 3.0 0.00 0.05 0.04 98 1014.2
20260831162906 69 45 1.0 3.0 0.00 0.05 0.04 98 1014.3
20260831161906 70 66 1.0 2.0 0.00 0.05 0.04 98 1014.2
20260831161406 71 46 1.0 2.0 0.00 0.05 0.04 98 1014.3
20260831160909 70 78 1.0 3.0 0.00 0.05 0.04 98 1014.4
20260831160405 70 36 1.0 3.0 0.00 0.05 0.04 98 1014.4
20260831155906 70 122 1.0 2.0 0.00 0.05 0.04 98 1014.6
20260831155406 69 108 1.0 2.0 0.00 0.05 0.04 98 1014.7
20260831154906 69 156 1.0 2.0 0.00 0.05 0.04 98 1014.7
20260831154407 69 86 1.0 2.0 0.00 0.05 0.04 98 1014.6
20260831153906 69 54 1.0 2.0 0.00 0.05 0.04 98 1014.6
20260831153406 69 101 1.0 2.0 0.00 0.05 0.04 98 1014.8
20260831152906 69 131 0.0 2.0 0.00 0.05 0.04 98 1014.8